Total_Precipitation_Accumulation
2.61 2.51 3.67 3.81 3.20 2.50 2.28 2.24 2.07 1.93 1.92 1.92 1.76 1.64 1.51 1.46 1.31 1.17 1.04 0.96 0.93 0.94 0.99 1.00 1.06 1.18 1.19 1.10 1.02 1.25 1.32 1.28 1.23 1.22 1.37 1.57 1.74 1.93 2.11 2.32 2.60 2.87 2.61
2.13 2.12 3.39 3.63 3.08 2.43 2.10 2.07 2.05 1.94 2.01 1.94 1.90 1.76 1.65 1.48 1.35 1.21 1.01 0.99 1.00 0.98 0.95 0.99 1.08 1.09 1.10 1.15 1.16 1.31 1.35 1.22 1.13 1.22 1.58 1.89 1.90 1.94 2.02 2.07 2.43 2.74 2.49
1.65 1.75 2.58 3.28 2.97 2.44 2.11 1.96 2.00 1.99 2.10 2.03 2.01 1.82 1.67 1.54 1.45 1.29 1.15 1.20 1.15 1.04 0.98 0.95 1.07 1.09 1.09 1.27 1.28 1.30 1.26 1.21 1.19 1.41 2.04 2.83 2.45 2.04 2.01 2.05 2.26 2.20 2.20
1.51 1.60 1.95 2.70 2.58 2.16 1.95 1.94 2.05 2.09 2.21 2.12 1.95 1.74 1.63 1.61 1.55 1.38 1.27 1.36 1.19 1.06 1.01 1.00 1.10 1.20 1.14 1.25 1.25 1.22 1.17 1.24 1.43 1.57 2.06 2.72 2.83 2.30 2.17 2.27 2.23 2.15 2.22
1.48 1.58 2.10 2.69 2.43 2.11 1.92 2.08 2.28 2.28 2.26 2.06 1.80 1.62 1.62 1.66 1.60 1.52 1.50 1.46 1.21 1.11 1.03 1.01 1.10 1.13 1.12 1.17 1.12 1.18 1.23 1.44 1.71 1.63 1.87 2.34 2.89 2.71 2.21 2.21 2.25 2.26 2.41
1.49 1.59 2.00 2.55 2.41 2.18 1.99 2.21 2.33 2.35 2.36 2.23 1.97 1.73 1.67 1.64 1.60 1.54 1.57 1.42 1.25 1.13 1.03 1.00 1.06 1.12 1.11 1.14 1.16 1.17 1.28 1.50 1.58 1.67 1.94 2.31 2.68 2.68 2.24 2.14 2.25 2.47 2.48
1.37 1.39 1.63 2.28 2.38 2.23 2.12 2.33 2.39 2.43 2.54 2.50 2.22 2.01 1.80 1.64 1.58 1.56 1.58 1.43 1.33 1.24 1.16 1.12 1.14 1.15 1.11 1.16 1.13 1.09 1.09 1.12 1.16 1.44 1.68 2.25 2.41 2.41 2.32 2.18 2.14 2.24 2.34
1.44 1.35 1.34 1.97 2.24 2.23 2.27 2.32 2.30 2.32 2.37 2.41 2.17 1.96 1.76 1.61 1.55 1.63 1.66 1.47 1.38 1.25 1.19 1.20 1.25 1.29 1.25 1.23 1.19 1.12 1.07 0.90 0.87 1.09 1.43 1.99 2.35 2.35 2.29 2.35 2.36 2.30 2.42
1.57 1.51 1.41 1.54 1.85 2.18 2.24 2.11 2.11 2.09 2.10 2.22 2.04 1.90 1.69 1.57 1.49 1.55 1.60 1.48 1.41 1.37 1.33 1.31 1.41 1.41 1.27 1.24 1.21 1.13 1.07 0.89 0.90 1.08 1.13 1.79 2.32 2.38 2.20 2.23 2.46 2.56 2.57
1.76 1.63 1.44 1.39 1.47 1.56 1.78 1.93 2.07 2.12 2.11 2.18 1.99 1.77 1.61 1.51 1.37 1.44 1.42 1.39 1.46 1.51 1.55 1.54 1.55 1.48 1.41 1.31 1.20 1.10 1.01 0.82 0.91 0.99 1.31 1.75 2.31 2.48 2.32 2.14 2.14 2.21 2.26
1.55 1.45 1.49 1.49 1.52 1.56 1.52 1.58 1.88 2.02 2.04 1.92 1.85 1.73 1.55 1.29 1.15 1.24 1.25 1.47 1.56 1.67 1.73 1.73 1.67 1.62 1.46 1.28 1.18 1.01 0.83 0.80 0.95 1.09 1.52 2.00 2.43 2.62 2.41 2.09 1.96 1.92 1.99
1.27 1.24 1.31 1.34 1.46 1.51 1.37 1.58 1.88 1.73 1.63 1.39 1.41 1.29 1.31 1.24 1.16 0.96 1.12 1.49 1.64 1.66 1.65 1.70 1.74 1.52 1.23 0.93 0.89 0.83 0.74 0.72 0.80 0.96 1.50 2.20 2.51 2.61 2.33 2.16 2.10 2.03 2.08
1.07 1.04 1.01 1.07 1.12 1.25 1.42 1.66 1.95 2.02 1.82 1.59 1.35 1.27 1.31 1.23 1.10 0.99 1.00 1.15 1.28 1.30 1.17 1.19 1.20 1.06 0.96 0.88 0.86 0.75 0.73 0.71 0.79 0.94 1.61 2.24 2.52 2.62 2.45 2.31 2.32 2.34 2.33
0.87 0.98 0.81 0.72 0.87 1.04 1.16 1.30 1.57 1.64 1.58 1.46 1.25 1.16 1.27 1.29 1.17 1.12 1.11 1.14 1.16 1.14 1.17 1.14 1.17 1.12 0.93 0.83 0.85 0.89 0.86 0.81 0.89 1.12 1.63 2.12 2.50 2.75 2.68 2.58 2.59 2.57 2.69
0.88 0.92 0.84 0.73 0.72 0.79 0.85 0.97 1.11 1.27 1.35 1.37 1.33 1.14 1.17 1.29 1.25 1.21 1.15 1.20 1.08 1.01 1.07 1.13 1.15 1.16 1.05 0.91 0.88 0.91 0.99 0.93 0.93 1.07 1.37 1.80 2.34 2.78 2.97 2.90 2.67 2.55 2.61
0.81 0.90 0.89 0.79 0.78 0.80 0.76 0.76 0.76 0.91 1.09 1.21 1.25 1.15 1.17 1.27 1.28 1.33 1.27 1.21 1.13 1.04 1.07 1.24 1.20 1.21 1.18 1.11 0.97 0.98 1.01 0.96 0.94 0.98 1.12 1.48 1.83 2.23 2.72 3.07 2.88 2.63 2.43
0.78 0.82 0.87 0.85 0.87 0.89 0.85 0.82 0.68 0.72 0.83 1.00 1.14 1.14 1.21 1.19 1.13 1.20 1.22 1.16 1.14 1.15 1.16 1.20 1.24 1.29 1.21 1.13 1.10 1.06 1.05 1.01 0.93 0.96 0.93 1.07 1.18 1.52 1.98 2.43 2.75 2.76 2.63
0.82 0.87 0.93 0.93 0.95 0.98 0.99 0.97 0.89 0.92 1.01 1.08 1.24 1.22 1.20 1.24 1.20 1.19 1.22 1.21 1.25 1.29 1.27 1.30 1.36 1.35 1.29 1.28 1.25 1.22 1.10 1.07 1.01 0.99 0.93 0.92 0.98 0.99 1.24 1.55 1.94 2.34 2.58
0.77 0.81 0.87 0.96 0.99 1.02 1.05 1.13 1.25 1.28 1.28 1.29 1.35 1.29 1.20 1.22 1.27 1.40 1.43 1.43 1.40 1.41 1.41 1.35 1.37 1.29 1.29 1.31 1.24 1.27 1.22 1.18 1.12 0.98 1.00 0.97 0.96 0.90 0.97 0.97 1.13 1.39 1.78
0.69 0.74 0.81 0.88 1.04 1.16 1.21 1.21 1.37 1.43 1.49 1.57 1.60 1.45 1.32 1.37 1.50 1.69 1.78 1.68 1.64 1.63 1.62 1.55 1.61 1.50 1.38 1.42 1.31 1.28 1.25 1.16 1.19 1.14 1.10 1.04 1.06 1.01 0.94 0.84 0.82 0.77 1.02
0.58 0.63 0.71 0.77 0.93 1.04 1.09 1.22 1.42 1.58 1.74 1.89 1.97 1.83 1.68 1.66 1.82 1.96 1.89 1.97 1.99 1.85 1.86 1.91 1.95 1.91 1.73 1.60 1.65 1.54 1.29 1.10 1.17 1.12 1.07 1.10 1.13 1.21 1.20 1.05 0.90 0.82 0.81
0.37 0.42 0.52 0.62 0.68 0.82 0.99 1.24 1.43 1.73 1.79 1.87 2.00 2.04 1.95 1.89 2.05 2.09 2.17 2.25 2.28 2.28 2.21 2.11 2.22 2.37 2.11 1.88 1.98 2.26 1.89 1.55 1.19 0.96 1.03 1.05 1.12 1.34 1.38 1.18 0.97 0.89 0.88
0.29 0.32 0.42 0.54 0.68 0.91 1.13 1.46 1.74 2.02 2.10 2.15 2.10 2.14 2.17 2.21 2.27 2.31 2.37 2.42 2.43 2.28 2.27 2.38 2.51 2.85 2.67 2.30 2.09 2.36 2.20 1.90 1.62 1.18 1.04 1.05 1.11 1.27 1.38 1.39 1.27 1.20 1.10
0.27 0.34 0.47 0.67 0.89 1.15 1.48 1.86 2.13 2.38 2.48 2.31 2.27 2.27 2.24 2.19 2.23 2.35 2.36 2.34 2.30 2.24 2.31 2.37 2.42 2.84 3.06 2.77 2.42 2.01 1.79 1.76 1.86 1.60 1.18 1.09 1.14 1.13 1.24 1.33 1.29 1.35 1.34
0.42 0.51 0.70 0.97 1.27 1.54 1.78 1.98 2.23 2.36 2.36 2.30 2.25 2.25 2.15 2.10 2.08 2.12 2.12 2.22 2.24 2.27 2.34 2.50 2.64 2.91 2.94 2.93 2.75 2.52 2.28 1.96 1.61 1.70 1.66 1.36 1.27 1.14 1.22 1.34 1.39 1.48 1.52
0.60 0.77 0.96 1.14 1.45 1.64 1.77 1.87 2.03 2.18 2.22 2.21 2.21 2.23 2.21 2.16 2.06 1.98 1.92 2.01 2.15 2.29 2.34 2.44 2.60 2.86 2.97 3.06 2.98 2.69 2.58 2.41 2.13 2.01 1.75 1.61 1.57 1.31 1.26 1.30 1.33 1.46 1.62